BVX255X FACT-EGKK

Flight info

Callsign BVX255X
Flight time N/A
Altitude 37000
Route KODES1A KODES UN186 ATUPI/N0497F360 UM436 ANVAG/N0492F380 UN187 VNA UR526 LIKAD DCT TASIN DCT MOVOD DCT ARASI DCT DLA DCT MF DCT OBUDU UA604 IKPUV/N0485F400 UA604 MOLIT DCT AS UR978 BOD UM998 KAMER DCT SUXER DCT OLNUL DCT SOSUR DCT SOFFY DCT MRM DCT MTL DCT ETREK DCT MADOT DCT MOPEM DCT CACHI DCT AVLON DCT OKRIX DCT BRY DCT CLM DCT KOPOR DCT KESAX DCT KUNAV
Aircraft A359/H-SDE2E3GHIJ3J4J5LM1ORWXY/LB1D1

Departure

Time 2026-05-04 21:05
Airport Cape Town International Airport (FACT)

Arrival

Time N/A
Airport London Gatwick Airport (EGKK)
Time Latitude Longitude Altitude Speed Heading
2026-05-04 20:42 -33.96647 18.59711 160 ft 0 kts 255°
2026-05-04 20:52 -33.96642 18.59734 160 ft 4 kts 255°
2026-05-04 20:53 -33.96636 18.59763 160 ft 2 kts 255°
2026-05-04 20:53 -33.96631 18.59788 160 ft 4 kts 217°
2026-05-04 20:53 -33.96611 18.59802 160 ft 4 kts 185°
2026-05-04 20:53 -33.96587 18.59803 160 ft 1 kts 171°
2026-05-04 20:55 -33.96590 18.59804 160 ft 1 kts 171°
2026-05-04 20:56 -33.96597 18.59805 160 ft 2 kts 171°
2026-05-04 20:56 -33.96618 18.59811 160 ft 4 kts 168°
2026-05-04 20:56 -33.96656 18.59822 160 ft 7 kts 166°
2026-05-04 20:56 -33.96709 18.59839 160 ft 9 kts 165°
2026-05-04 20:57 -33.96777 18.59860 160 ft 11 kts 165°
2026-05-04 20:57 -33.96858 18.59886 160 ft 13 kts 165°
2026-05-04 20:57 -33.96948 18.59915 160 ft 13 kts 165°
2026-05-04 20:57 -33.97036 18.59943 160 ft 13 kts 165°
2026-05-04 20:58 -33.97123 18.59970 160 ft 13 kts 165°
2026-05-04 20:58 -33.97209 18.59998 160 ft 13 kts 165°
2026-05-04 20:58 -33.97293 18.60025 160 ft 12 kts 165°
2026-05-04 20:58 -33.97376 18.60051 160 ft 12 kts 165°
2026-05-04 20:59 -33.97458 18.60077 160 ft 12 kts 165°
2026-05-04 20:59 -33.97538 18.60109 160 ft 12 kts 156°
2026-05-04 20:59 -33.97615 18.60148 160 ft 12 kts 159°
2026-05-04 20:59 -33.97692 18.60182 160 ft 12 kts 160°
2026-05-04 21:00 -33.97768 18.60215 160 ft 12 kts 160°
2026-05-04 21:00 -33.97844 18.60248 160 ft 11 kts 160°
2026-05-04 21:00 -33.97919 18.60280 160 ft 11 kts 160°
2026-05-04 21:00 -33.97992 18.60312 160 ft 11 kts 160°
2026-05-04 21:01 -33.98065 18.60344 160 ft 11 kts 160°
2026-05-04 21:01 -33.98138 18.60374 160 ft 11 kts 161°
2026-05-04 21:01 -33.98210 18.60405 160 ft 11 kts 161°
2026-05-04 21:01 -33.98282 18.60435 160 ft 11 kts 161°
2026-05-04 21:02 -33.98354 18.60466 160 ft 11 kts 161°
2026-05-04 21:02 -33.98426 18.60496 160 ft 11 kts 161°
2026-05-04 21:02 -33.98497 18.60526 160 ft 11 kts 161°
2026-05-04 21:02 -33.98568 18.60556 160 ft 11 kts 161°
2026-05-04 21:03 -33.98639 18.60586 160 ft 11 kts 161°
2026-05-04 21:03 -33.98711 18.60616 160 ft 11 kts 161°
2026-05-04 21:03 -33.98782 18.60649 160 ft 10 kts 152°
2026-05-04 21:03 -33.98801 18.60721 160 ft 9 kts 79°
2026-05-04 21:04 -33.98785 18.60791 160 ft 8 kts 75°
2026-05-04 21:04 -33.98759 18.60849 161 ft 8 kts 49°
2026-05-04 21:04 -33.98702 18.60870 160 ft 10 kts 357°
2026-05-04 21:04 -33.98595 18.60834 158 ft 33 kts 343°
2026-05-04 21:05 -33.98122 18.60682 160 ft 106 kts 345°
2026-05-04 21:05 -33.97205 18.60390 160 ft 163 kts 345°
2026-05-04 21:05 -33.95994 18.60004 449 ft 184 kts 345°
2026-05-04 21:05 -33.94752 18.59614 1147 ft 185 kts 346°
2026-05-04 21:06 -33.93497 18.59231 1850 ft 187 kts 346°
2026-05-04 21:06 -33.92154 18.59122 2212 ft 204 kts
2026-05-04 21:06 -33.90715 18.59555 2494 ft 222 kts 17°
2026-05-04 21:06 -33.89175 18.60113 2753 ft 240 kts 15°
2026-05-04 21:07 -33.87497 18.60635 2933 ft 258 kts 13°
2026-05-04 21:07 -33.85727 18.61077 3462 ft 260 kts 11°
2026-05-04 21:07 -33.83935 18.61468 3976 ft 263 kts
2026-05-04 21:07 -33.82127 18.61834 4533 ft 265 kts
2026-05-04 21:08 -33.80298 18.62199 5065 ft 267 kts
2026-05-04 21:08 -33.78458 18.62569 5609 ft 269 kts
2026-05-04 21:08 -33.76604 18.62942 6142 ft 271 kts
2026-05-04 21:08 -33.74735 18.63324 6683 ft 273 kts
2026-05-04 21:09 -33.72852 18.63713 7209 ft 276 kts
2026-05-04 21:09 -33.70978 18.64109 7736 ft 278 kts
2026-05-04 21:09 -33.69061 18.64496 8275 ft 280 kts
2026-05-04 21:09 -33.67128 18.64885 8798 ft 283 kts
2026-05-04 21:10 -33.65182 18.65283 9322 ft 286 kts
2026-05-04 21:10 -33.63220 18.65685 9881 ft 286 kts
2026-05-04 21:10 -33.61243 18.66083 10294 ft 294 kts
2026-05-04 21:10 -33.59172 18.66498 10453 ft 309 kts
2026-05-04 21:11 -33.56998 18.66937 10602 ft 324 kts
2026-05-04 21:11 -33.54736 18.67391 10828 ft 334 kts
2026-05-04 21:11 -33.52437 18.67848 11346 ft 335 kts
2026-05-04 21:11 -33.50135 18.68319 11905 ft 336 kts
2026-05-04 21:12 -33.47829 18.68795 12427 ft 337 kts
2026-05-04 21:12 -33.45514 18.69274 12953 ft 338 kts
2026-05-04 21:12 -33.43200 18.69749 13485 ft 337 kts
2026-05-04 21:12 -33.40877 18.70221 13982 ft 339 kts
2026-05-04 21:13 -33.38555 18.70689 14493 ft 339 kts
2026-05-04 21:13 -33.36229 18.71160 14968 ft 340 kts
2026-05-04 21:13 -33.33894 18.71634 15493 ft 340 kts
2026-05-04 21:13 -33.31558 18.72111 15958 ft 341 kts
2026-05-04 21:14 -33.29215 18.72588 16428 ft 341 kts
2026-05-04 21:14 -33.26874 18.73061 16904 ft 342 kts
2026-05-04 21:14 -33.24526 18.73534 17377 ft 342 kts
2026-05-04 21:14 -33.22177 18.74010 17795 ft 343 kts
2026-05-04 21:15 -33.19821 18.74483 18252 ft 343 kts
2026-05-04 21:15 -33.17461 18.74957 18674 ft 343 kts
2026-05-04 21:15 -33.15095 18.75255 19046 ft 341 kts 356°
2026-05-04 21:15 -33.12742 18.75215 19464 ft 337 kts 349°
2026-05-04 21:16 -33.10426 18.74855 19862 ft 336 kts 345°
2026-05-04 21:16 -33.08112 18.74399 20250 ft 338 kts 345°
2026-05-04 21:16 -33.05791 18.73958 20683 ft 338 kts 346°
2026-05-04 21:16 -33.03462 18.73533 21071 ft 339 kts 346°
2026-05-04 21:17 -33.01126 18.73103 21469 ft 340 kts 345°
2026-05-04 21:17 -32.98784 18.72669 21854 ft 342 kts 345°
2026-05-04 21:17 -32.96432 18.72227 22283 ft 342 kts 345°
2026-05-04 21:17 -32.94072 18.71785 22649 ft 344 kts 345°
2026-05-04 21:18 -32.91700 18.71343 23044 ft 345 kts 345°
2026-05-04 21:18 -32.89323 18.70895 23490 ft 345 kts 345°
2026-05-04 21:18 -32.86940 18.70453 23828 ft 348 kts 345°
2026-05-04 21:18 -32.84542 18.70011 24128 ft 352 kts 345°
2026-05-04 21:19 -32.82095 18.69557 24206 ft 361 kts 345°
2026-05-04 21:19 -32.79583 18.69090 24299 ft 370 kts 345°
2026-05-04 21:19 -32.77011 18.68614 24385 ft 378 kts 345°
2026-05-04 21:19 -32.74387 18.68133 24463 ft 385 kts 345°
2026-05-04 21:20 -32.71751 18.67646 24665 ft 390 kts 345°
2026-05-04 21:20 -32.69026 18.67150 25007 ft 392 kts 345°
2026-05-04 21:20 -32.66324 18.66654 25287 ft 394 kts 345°
2026-05-04 21:20 -32.63617 18.66154 25620 ft 395 kts 345°
2026-05-04 21:21 -32.60898 18.65651 25923 ft 396 kts 345°
2026-05-04 21:21 -32.59093 18.65319 26105 ft 397 kts 345°
2026-05-04 21:21 -32.56361 18.64812 26416 ft 398 kts 345°
2026-05-04 21:21 -32.52730 18.64146 26795 ft 400 kts 345°
2026-05-04 21:22 -32.49975 18.63639 27044 ft 401 kts 345°
2026-05-04 21:22 -32.47216 18.63133 27363 ft 402 kts 345°
2026-05-04 21:22 -32.44448 18.62625 27662 ft 403 kts 345°
2026-05-04 21:22 -32.42576 18.62283 27808 ft 405 kts 345°
2026-05-04 21:23 -32.38917 18.61615 28508 ft 395 kts 345°
2026-05-04 21:23 -32.37111 18.61292 29257 ft 381 kts 345°
2026-05-04 21:23 -32.34536 18.60833 30119 ft 370 kts 344°
2026-05-04 21:23 -32.31987 18.60365 30293 ft 374 kts 344°
2026-05-04 21:24 -32.29400 18.59883 30448 ft 378 kts 344°
2026-05-04 21:24 -32.26836 18.59410 30660 ft 379 kts 344°
2026-05-04 21:24 -32.24181 18.59104 30824 ft 389 kts 354°
2026-05-04 21:24 -32.21483 18.59609 30737 ft 402 kts
2026-05-04 21:25 -32.18914 18.61100 30483 ft 424 kts 25°
2026-05-04 21:25 -32.16687 18.63515 30206 ft 448 kts 40°
2026-05-04 21:25 -32.14997 18.66706 29921 ft 472 kts 56°
2026-05-04 21:25 -32.13999 18.70472 29637 ft 493 kts 72°
2026-05-04 21:26 -32.13793 18.74575 29354 ft 511 kts 87°
2026-05-04 21:26 -32.14419 18.78744 29073 ft 523 kts 103°
2026-05-04 21:26 -32.15857 18.82722 28777 ft 532 kts 118°
2026-05-04 21:26 -32.18029 18.86260 28497 ft 534 kts 134°
2026-05-04 21:27 -32.20810 18.89138 28222 ft 532 kts 149°
2026-05-04 21:27 -32.24037 18.91199 27943 ft 524 kts 164°
2026-05-04 21:27 -32.27501 18.92336 27667 ft 511 kts 179°
2026-05-04 21:27 -32.30986 18.92517 27379 ft 494 kts 194°
2026-05-04 21:28 -32.34287 18.91772 27089 ft 474 kts 210°
2026-05-04 21:28 -32.37207 18.90196 26814 ft 451 kts 224°
2026-05-04 21:28 -32.39582 18.87931 26546 ft 429 kts 239°
2026-05-04 21:28 -32.41604 18.85365 26244 ft 430 kts 236°
2026-05-04 21:29 -32.43975 18.83112 25985 ft 445 kts 225°
2026-05-04 21:29 -32.46744 18.81337 25719 ft 460 kts 214°
2026-05-04 21:29 -32.49825 18.80138 25452 ft 474 kts 202°
2026-05-04 21:29 -32.53127 18.79573 25183 ft 486 kts 192°
2026-05-04 21:30 -32.56516 18.79435 24924 ft 487 kts 189°
2026-05-04 21:30 -32.59889 18.79295 24691 ft 483 kts 191°
2026-05-04 21:30 -32.63228 18.79036 24445 ft 480 kts 193°
2026-05-04 21:30 -32.66559 18.78671 24194 ft 480 kts 194°
2026-05-04 21:31 -32.73188 18.77794 23723 ft 480 kts 195°
2026-05-04 21:31 -32.76506 18.77331 23431 ft 479 kts 194°
2026-05-04 21:31 -32.79805 18.76875 23202 ft 478 kts 194°
2026-05-04 21:32 -32.83115 18.76419 22955 ft 479 kts 194°
2026-05-04 21:32 -32.86424 18.75959 22697 ft 479 kts 194°
2026-05-04 21:32 -32.89730 18.75493 22446 ft 478 kts 194°
2026-05-04 21:32 -32.93033 18.75027 22195 ft 477 kts 194°
2026-05-04 21:33 -32.96331 18.74564 21953 ft 477 kts 194°
2026-05-04 21:33 -32.99630 18.74113 21701 ft 476 kts 193°
2026-05-04 21:33 -33.02920 18.73662 21456 ft 476 kts 193°
2026-05-04 21:33 -33.06209 18.73211 21207 ft 476 kts 193°
2026-05-04 21:34 -33.09450 18.72760 20963 ft 475 kts 193°
2026-05-04 21:34 -33.12782 18.72301 20706 ft 475 kts 193°
2026-05-04 21:34 -33.16018 18.71853 20487 ft 474 kts 193°
2026-05-04 21:34 -33.19281 18.71402 20421 ft 469 kts 193°
2026-05-04 21:35 -33.22506 18.70953 20318 ft 466 kts 193°
2026-05-04 21:35 -33.25723 18.70500 20077 ft 465 kts 193°
2026-05-04 21:35 -33.28938 18.70047 19831 ft 466 kts 193°
2026-05-04 21:35 -33.32159 18.69590 19588 ft 466 kts 193°
2026-05-04 21:36 -33.35364 18.69140 19541 ft 462 kts 193°
2026-05-04 21:36 -33.38540 18.68694 19440 ft 458 kts 193°
2026-05-04 21:36 -33.41694 18.68250 19309 ft 455 kts 192°
2026-05-04 21:36 -33.44832 18.67807 19191 ft 452 kts 193°
2026-05-04 21:37 -33.47851 18.66977 19048 ft 439 kts 205°
2026-05-04 21:37 -33.50767 18.65907 18932 ft 442 kts 198°
2026-05-04 21:37 -33.53850 18.65546 18810 ft 450 kts 184°
2026-05-04 21:37 -33.56972 18.66042 18687 ft 457 kts 169°
2026-05-04 21:38 -33.59993 18.67295 18422 ft 462 kts 162°
2026-05-04 21:38 -33.63022 18.68677 17878 ft 470 kts 162°
2026-05-04 21:38 -33.66089 18.70067 17653 ft 470 kts 162°
2026-05-04 21:38 -33.69142 18.71443 17480 ft 468 kts 162°
2026-05-04 21:39 -33.72191 18.72816 17269 ft 467 kts 162°
2026-05-04 21:39 -33.75225 18.74188 17123 ft 465 kts 161°
2026-05-04 21:39 -33.78200 18.75544 16852 ft 448 kts 160°
2026-05-04 21:39 -33.81093 18.76807 16298 ft 438 kts 162°
2026-05-04 21:40 -33.83987 18.77868 15455 ft 433 kts 167°
2026-05-04 21:40 -33.86934 18.78593 14534 ft 431 kts 172°
2026-05-04 21:40 -33.89859 18.79159 13936 ft 421 kts 172°
2026-05-04 21:40 -33.92732 18.79707 13231 ft 415 kts 172°
2026-05-04 21:41 -33.95562 18.80235 12529 ft 408 kts 172°
2026-05-04 21:41 -33.98345 18.80719 11900 ft 399 kts 173°
2026-05-04 21:41 -34.01087 18.81115 11158 ft 394 kts 175°
2026-05-04 21:41 -34.03791 18.81414 10500 ft 386 kts 176°
2026-05-04 21:42 -34.06456 18.81624 9686 ft 383 kts 178°
2026-05-04 21:42 -34.09102 18.81708 8919 ft 378 kts 180°
2026-05-04 21:42 -34.11719 18.81643 8160 ft 374 kts 183°
2026-05-04 21:42 -34.14295 18.81484 7497 ft 367 kts 184°
2026-05-04 21:43 -34.16836 18.81318 6728 ft 364 kts 184°
2026-05-04 21:43 -34.19340 18.81091 5939 ft 359 kts 190°
2026-05-04 21:43 -34.21680 18.80165 5220 ft 351 kts 207°
2026-05-04 21:43 -34.23620 18.78429 4516 ft 345 kts 227°
2026-05-04 21:44 -34.24941 18.76078 3819 ft 337 kts 245°
2026-05-04 21:44 -34.25476 18.73400 3602 ft 318 kts 266°
2026-05-04 21:44 -34.25215 18.70890 3493 ft 296 kts 288°
2026-05-04 21:44 -34.24197 18.68810 3371 ft 276 kts 315°
2026-05-04 21:45 -34.22613 18.67706 3260 ft 257 kts 345°
2026-05-04 21:45 -34.20896 18.67511 3171 ft 241 kts 356°
2026-05-04 21:45 -34.19302 18.67310 3063 ft 225 kts 349°
2026-05-04 21:45 -34.17822 18.66939 3013 ft 208 kts 346°
2026-05-04 21:46 -34.16476 18.66529 3009 ft 191 kts 345°
2026-05-04 21:46 -34.15247 18.66136 2984 ft 179 kts 351°
2026-05-04 21:46 -34.13989 18.65801 2785 ft 192 kts 355°
2026-05-04 21:46 -34.12692 18.65505 2934 ft 182 kts 354°
2026-05-04 21:47 -34.11458 18.65059 2822 ft 192 kts 343°
2026-05-04 21:47 -34.10114 18.64537 2520 ft 212 kts 346°
2026-05-04 21:47 -34.08683 18.64092 2465 ft 207 kts 340°
2026-05-04 21:47 -34.07385 18.63691 2317 ft 182 kts 341°
2026-05-04 21:48 -34.06192 18.63288 1896 ft 170 kts 340°
2026-05-04 21:48 -34.05032 18.62952 1619 ft 177 kts 349°
2026-05-04 21:48 -34.03806 18.62563 1277 ft 185 kts 346°
2026-05-04 21:48 -34.02636 18.62099 907 ft 172 kts 343°
2026-05-04 21:49 -34.01550 18.61809 636 ft 150 kts 343°
2026-05-04 21:49 -34.00532 18.61505 403 ft 155 kts 358°
2026-05-04 21:49 -33.99480 18.61443 265 ft 148 kts 17°